NATO 2B

Satellite information

Favourite Embed

Satellite Type and Status

PAYLOADIN ORBIT

Key statistics

Satellite NATO 2B at a glance.

Uptime

19996

Days in orbit

Revolutions

≈ 1.0

Per day

Orbit

GEO

Geostationary Orbit

Inclination

1.7

Latest

Satellite identification and parameters

Extended collection of information and parameters for NATO 2B.

Object identification

Identified? True

Debris? False

Object name: NATO 2B

International designator: 1971-009A

Object number (NORAD): 4902

Object ID (CCSDS): 4902

Country: NORTH ATLANTIC TREATY ORGANIZATION (NATO)

Current information (Y/N): Y

RCS size: LARGE

Orbital parameters

Period: 1436.088 minutes

Inclination: 1.7177 deg

SMA: 42164.555 km

Apoapsis: 35798.989 km

Periapsis: 35773.852 km

RAAN: 256.6355 deg

Eccentricy: 0.00029808

Argument of periapsis: 270.5025 deg

Mean anomaly: 340.9494 deg

Mean motion: 1.00272414 rev/day

Mean motion (dot): -0.00000076 rev/day2

B* drag term: 0.0 1/REarth

Two-line elements (TLE)

Creation date: Nov. 1, 2025, 7:40 p.m.

Reference frame: TEME

Reference center: EARTH

Epoch: Nov. 1, 2025, 2:09 p.m. UTC

TLE line 0: 0 NATO 2B

TLE line 1: 1 04902U 71009A 25305.58963054 -.00000076 00000-0 00000-0 0 9991

TLE line 2: 2 04902 1.7177 256.6355 0002981 270.5025 340.9494 1.00272414116353

Live tracking on map

Real-time ground track for satellite NATO 2B.

In-orbit conjunctions

A list of the most updated potential collisions computed for object NATO 2B.

Target Orbit TCA Probability of collision Miss distance Type
GSTAR 1 OTHER 2025-05-13 03:38:09 TBA 4891.0 (m) PAYLOAD
GSTAR 1 OTHER 2025-05-12 03:42:09 TBA 3610.0 (m) PAYLOAD
GSTAR 1 OTHER 2025-05-11 03:46:10 TBA 3366.0 (m) PAYLOAD
GSTAR 1 OTHER 2025-05-10 03:50:10 TBA 3789.0 (m) PAYLOAD

Associated space launch

First generation satellite providing communications bezween officials of NATO nations.

NATO 2B was lifted into orbit during the mission ‘Thor Delta M | NATO IIB’, on board a Thor Delta M space rocket.

The launch took place on Feb. 3, 1971, 1:41 a.m. from Space Launch Complex 17A.

For more information about the launch, click the button.

Launch to space Thor Delta M | NATO IIB
Thor Delta M | NATO IIB

Agency: N/A

Status: Launch Successful

Launch date: Feb. 3, 1971, 1:41 a.m. UTC

Rocket: Thor Delta M

Launch pad: Space Launch Complex 17A

Location: Cape Canaveral SFS, FL, USA

...

Latest news about this satellite

There are no fresh news available about this satellite. Check back as we update our databases every day.


Newsletter sign-up

Weekly statistics, charts and insights to help you stay on top of the space industry.